Dewpoint
74 74 74 74 74 74 74 74 74 74 74 74 74 73 73 72 71 71 71 70 69 68 68 68 68 68 66 67 67 67 67 66 66 67 65 66 66 65 66 67 66 66 67 66 65 64 65 65 64 65 66 65 65 66 66 65 65 64 65 65 65 66 65 64 62 62 63 65 64 64 64 64 63 64 63 63 63 64 66 63 63 63 63 63 63
74 74 74 74 74 74 74 74 74 74 73 74 74 73 73 72 72 71 71 70 69 69 68 68 68 68 66 66 67 67 67 66 66 66 67 66 65 66 65 67 65 65 67 66 65 65 65 64 65 65 66 65 66 65 65 65 65 65 65 65 64 65 66 64 63 62 62 62 64 65 65 66 63 64 63 63 63 65 64 64 65 64 63 63 63
74 74 74 74 74 74 74 74 74 74 73 73 74 73 73 73 72 71 71 71 70 69 68 67 68 68 67 66 66 66 67 67 66 65 67 67 65 65 65 65 65 65 65 65 65 65 65 65 64 65 66 65 65 64 65 65 65 64 64 65 64 65 66 64 62 62 62 61 63 63 63 64 63 63 64 65 65 65 63 63 64 64 65 64 64
74 74 74 74 74 74 74 74 74 73 73 73 73 73 73 73 73 72 71 71 70 69 69 68 68 67 67 66 66 66 67 67 66 65 66 66 66 65 65 65 65 65 65 64 65 65 64 65 65 65 65 64 65 64 64 64 64 64 63 64 64 64 65 65 64 62 61 61 61 62 63 62 63 65 65 66 64 63 63 63 64 64 64 64 63
74 74 74 73 74 74 73 74 73 73 73 73 73 73 73 73 73 72 72 71 71 70 69 68 68 67 67 66 66 66 66 66 66 65 66 66 65 65 65 64 65 66 65 65 67 65 64 64 64 64 64 64 64 64 64 64 64 64 64 64 63 63 64 64 64 64 63 62 62 63 64 63 64 64 64 63 63 63 63 63 63 63 63 63 64
74 75 74 73 73 73 73 73 73 73 73 73 73 73 73 73 73 73 72 71 71 70 69 68 68 67 67 66 66 66 67 66 66 66 66 66 66 65 65 65 65 66 66 65 65 65 64 64 65 64 64 63 64 64 64 64 64 63 63 64 63 64 63 64 65 65 64 63 62 61 61 62 62 62 63 63 63 62 62 62 62 62 62 61 61
74 75 74 73 73 73 73 73 73 73 73 73 73 72 72 72 73 73 72 72 71 70 69 68 69 68 67 66 67 67 67 67 66 66 67 67 66 65 65 65 65 65 66 65 65 65 65 65 65 65 65 65 64 64 64 64 64 64 64 64 64 63 64 64 65 63 63 62 62 62 62 62 62 62 62 63 63 62 61 60 60 60 61 62 62
74 75 74 74 73 73 73 73 73 73 73 73 72 72 72 72 73 73 73 72 71 71 69 69 68 68 68 67 67 67 67 66 66 66 67 67 66 66 65 65 65 65 65 65 65 65 65 65 65 65 65 65 64 64 64 64 64 63 63 64 65 64 63 64 63 63 62 62 62 61 60 61 60 62 62 61 61 61 62 61 60 59 60 61 61
74 74 74 74 73 73 73 73 73 73 73 73 72 72 72 72 73 73 73 72 72 71 70 69 68 68 68 67 67 67 67 67 67 66 67 66 66 66 65 65 65 65 65 65 65 65 65 64 64 64 66 69 69 68 66 67 65 63 64 65 64 63 63 63 62 62 61 61 60 60 59 59 59 59 58 58 59 60 60 60 60 60 61 61 61
73 74 74 74 73 73 73 73 73 74 73 73 73 73 72 72 72 73 73 72 72 71 70 70 68 68 67 67 67 67 67 67 66 63 64 66 66 66 66 65 65 65 64 65 64 64 64 64 65 68 69 70 70 70 68 67 66 64 64 65 65 63 62 61 61 61 61 60 60 59 59 58 58 58 58 59 60 60 59 59 59 59 59 60 60
72 73 73 74 73 73 73 73 73 73 74 73 73 73 73 72 72 73 73 73 72 71 71 70 69 68 67 67 67 67 67 67 62 62 62 63 65 65 66 66 65 64 65 64 64 64 65 65 64 67 69 69 69 70 69 68 68 67 67 67 66 64 63 62 62 61 60 60 60 59 58 58 59 59 59 59 59 59 58 58 59 59 58 56 56
71 72 73 74 74 73 73 73 73 73 74 73 73 73 73 73 72 73 73 72 72 71 71 70 69 68 67 66 67 67 66 64 60 61 62 62 64 65 65 65 65 64 65 65 65 65 65 65 65 65 65 65 64 66 69 68 65 65 65 64 64 64 64 63 61 61 61 60 59 60 59 59 59 59 59 59 59 59 59 59 59 59 58 56 55
70 71 72 74 74 74 74 74 73 73 73 74 74 73 73 73 72 72 72 72 72 71 71 70 69 68 67 67 66 67 66 62 60 60 61 61 62 64 65 65 65 65 65 65 65 65 65 64 64 65 65 69 69 65 64 65 66 64 64 64 64 63 61 61 62 63 62 61 60 59 59 59 59 59 61 60 60 58 58 59 59 58 58 57 57
70 70 72 73 74 74 74 74 74 73 73 74 74 74 73 73 73 72 73 72 72 71 71 69 68 68 67 67 67 66 66 61 59 59 60 60 61 63 64 65 65 65 65 64 64 64 64 64 64 64 65 66 66 66 65 65 65 65 64 64 64 66 63 60 59 60 61 62 61 60 60 61 60 59 61 61 59 59 58 58 58 57 57 56 56
70 71 71 73 74 74 74 74 74 74 74 74 75 74 74 73 73 73 73 73 72 71 71 69 68 68 68 68 67 66 66 59 58 58 58 59 59 62 64 65 65 65 64 63 62 61 61 63 65 65 66 66 67 67 66 66 66 66 65 65 66 66 66 65 63 62 62 62 61 61 61 61 61 61 61 61 61 61 60 58 57 56 55 56 57
70 71 71 72 74 74 75 75 75 75 75 75 75 75 74 73 73 73 73 73 73 72 71 70 68 68 68 68 67 66 65 58 57 57 57 58 59 63 64 65 65 64 64 63 63 62 63 63 65 66 66 66 67 66 67 66 66 65 65 65 65 65 65 66 63 64 64 62 61 61 60 61 61 62 62 61 60 59 59 59 57 57 56 55 54
71 71 71 73 74 75 75 75 75 75 75 75 75 74 74 74 73 73 72 73 73 73 72 70 69 68 68 67 66 65 64 58 56 56 56 57 59 63 64 64 64 63 62 62 62 62 62 63 66 67 66 65 65 62 64 68 65 65 65 64 65 64 63 63 60 58 58 58 59 60 59 57 57 56 55 55 58 57 55 55 55 55 54 53 54
72 72 72 73 75 76 76 76 76 76 75 75 75 74 74 74 73 73 72 72 71 71 69 68 67 67 66 66 65 64 63 58 55 55 56 56 60 63 63 64 62 62 61 61 61 60 61 65 68 67 66 65 62 60 61 66 65 65 64 64 63 62 62 62 61 61 56 56 56 55 55 55 55 54 54 53 53 54 55 53 53 54 53 54 53
73 73 73 75 76 76 76 76 76 75 75 75 74 74 74 73 73 73 73 72 70 68 67 66 66 66 65 65 64 63 62 59 54 55 55 55 60 63 63 63 61 61 61 61 62 62 62 65 68 68 66 64 60 59 60 65 65 64 64 63 62 61 61 61 60 60 59 59 59 61 60 58 59 57 58 56 55 56 56 55 55 54 54 54 54
74 74 75 76 77 77 76 76 75 75 74 74 74 73 73 73 73 73 73 72 71 68 67 66 65 64 64 64 64 63 63 62 58 54 54 54 57 64 63 62 61 60 60 60 61 62 64 65 65 64 61 60 58 57 57 60 64 64 63 62 61 60 60 59 60 59 58 58 58 58 59 58 57 58 58 59 58 60 59 58 56 56 55 55 56
75 76 77 77 77 76 76 76 75 75 74 74 73 73 73 73 73 72 72 72 71 69 67 66 65 65 64 63 63 63 65 63 59 53 53 54 55 59 62 62 61 60 59 60 61 61 63 65 66 61 58 57 56 54 54 57 61 63 63 61 61 60 57 58 58 59 57 57 58 58 57 57 57 56 57 57 57 55 57 58 59 58 57 57 52
76 77 77 76 76 76 75 75 75 74 74 73 73 72 72 72 72 72 71 70 70 69 68 67 66 65 64 64 64 64 66 62 61 54 53 53 54 57 61 62 61 60 60 60 61 62 63 65 65 57 53 53 53 52 52 55 57 60 60 54 51 55 58 58 57 57 56 56 56 57 57 56 55 54 54 55 55 58 53 52 51 50 50 49 48
77 77 76 76 75 74 74 74 73 73 73 72 72 71 71 71 71 71 69 69 68 68 67 67 66 65 64 63 63 63 65 64 60 58 53 52 52 55 57 59 59 62 61 61 61 63 65 65 65 56 52 50 49 49 50 51 54 55 48 49 51 54 56 55 55 55 55 56 57 56 55 54 54 54 54 54 55 54 52 51 51 51 52 54 53
77 76 75 75 74 74 73 72 72 72 71 71 71 70 70 71 71 69 68 67 67 66 65 65 65 64 63 62 61 61 61 62 59 57 55 52 52 52 53 56 58 61 63 62 64 65 65 65 62 51 48 45 47 48 49 51 54 49 48 51 53 55 54 54 54 55 56 55 55 55 55 54 53 54 55 55 54 52 52 53 52 52 51 51 51
76 75 74 74 73 72 72 72 71 71 71 71 70 70 70 70 69 68 67 66 66 65 65 64 64 64 63 62 62 61 61 59 59 58 56 54 52 51 52 55 53 56 65 65 67 66 62 54 49 48 47 46 47 49 50 51 51 50 50 52 56 53 54 55 55 56 55 55 55 56 55 56 55 55 55 53 54 53 52 51 52 53 53 53 52
74 73 73 72 72 71 71 71 70 71 71 71 70 70 70 69 69 68 66 66 66 65 65 64 63 63 63 63 63 62 62 60 59 59 59 56 55 53 53 55 58 59 60 59 56 54 51 49 49 49 49 50 53 54 55 54 52 52 52 53 54 55 55 55 55 55 55 55 56 56 55 55 53 53 54 53 51 50 51 52 52 52 50 49 48
72 71 71 71 71 70 70 70 70 70 71 70 70 69 69 68 67 66 66 65 65 64 64 63 63 63 63 63 63 63 65 64 62 60 59 57 56 56 54 56 57 57 58 57 55 54 53 54 54 53 54 53 55 56 57 56 53 52 53 54 54 55 56 56 56 56 56 56 56 56 54 53 53 53 51 50 51 51 53 53 49 46 47 47 47
71 71 70 70 69 69 69 71 70 70 69 69 68 68 68 67 66 66 65 65 64 64 63 63 63 62 62 63 63 65 65 64 62 60 58 57 57 56 57 59 58 59 58 58 57 57 56 54 53 56 55 55 55 56 56 57 56 54 53 54 55 56 57 58 59 57 56 56 55 53 52 54 51 50 51 50 50 50 51 50 48 46 48 48 45
70 70 69 69 68 68 68 68 65 61 57 53 49 48 50 63 66 62 57 56 65 65 64 64 64 64 63 63 63 65 65 63 62 57 59 55 57 58 59 59 59 59 58 55 58 57 56 56 55 58 57 56 55 55 56 57 58 56 56 55 55 55 55 56 56 56 56 55 54 52 52 52 50 51 51 50 50 48 47 46 48 48 45 44 43
69 68 68 68 67 67 67 65 63 61 59 57 55 53 50 43 46 59 56 52 49 46 56 65 67 66 67 64 64 66 65 64 53 52 51 51 52 53 54 53 54 58 54 54 57 58 57 57 57 55 56 56 57 57 55 55 56 56 56 56 56 56 56 56 55 55 55 55 54 52 50 50 48 49 49 48 46 45 45 48 44 44 43 43 44
67 67 67 67 66 67 66 64 63 61 60 59 58 58 57 54 44 42 46 48 45 43 44 45 52 61 64 62 56 56 55 51 50 49 49 50 50 49 48 48 50 50 50 58 60 58 57 56 57 58 58 58 57 56 56 56 56 56 56 56 56 56 55 53 53 52 52 50 49 49 48 47 48 48 45 46 45 45 44 46 45 46 45 45 43
66 66 66 66 66 66 66 64 63 63 61 60 60 59 58 57 56 47 42 44 44 42 41 45 51 53 54 55 56 57 52 48 46 45 45 44 44 45 46 47 47 47 49 54 60 60 60 60 60 59 58 57 55 55 54 55 55 56 56 56 56 56 53 48 49 48 48 49 48 48 48 47 47 47 47 46 46 44 42 42 42 43 44 44 44
65 65 66 67 67 66 65 64 64 63 63 62 61 60 59 58 57 55 54 45 44 42 42 42 43 46 47 48 51 50 46 44 43 43 43 44 44 45 46 46 48 48 51 58 61 59 60 59 59 57 56 55 53 52 53 51 52 51 51 51 50 49 48 48 49 48 49 48 47 47 48 48 46 45 44 43 41 38 39 41 42 44 43 42 44
65 66 67 67 66 65 65 65 64 64 64 63 63 62 61 59 58 57 57 57 57 52 47 44 42 43 43 43 43 43 43 43 43 44 44 45 45 46 48 51 47 50 54 59 60 60 58 58 57 54 53 54 53 54 53 53 52 51 52 51 51 50 49 52 51 49 48 49 47 46 44 43 42 39 38 38 39 41 42 44 43 40 40 41 41
68 70 70 69 66 66 66 65 65 64 64 63 63 62 61 60 60 60 60 59 58 57 55 53 46 42 46 44 43 43 44 45 46 45 45 46 47 46 48 55 56 56 56 57 58 58 57 56 54 54 54 53 53 53 53 53 52 51 50 50 49 49 48 46 46 45 45 45 45 43 43 41 40 40 39 39 40 42 42 42 40 40 40 40 39
67 68 68 67 66 66 66 65 65 64 64 63 63 63 62 61 61 61 59 58 57 54 53 50 49 47 43 42 42 44 44 44 44 44 45 44 45 50 57 57 57 56 56 56 56 56 55 55 53 53 53 53 55 55 53 52 52 50 49 49 49 49 48 48 48 46 47 45 44 44 42 41 41 41 41 42 42 42 40 40 41 42 42 38 39
66 66 66 66 67 67 66 66 65 64 63 62 63 63 62 62 62 60 59 57 56 54 52 51 52 52 51 50 46 42 41 42 42 43 43 44 46 55 57 56 55 55 54 54 53 53 52 52 52 53 54 53 53 53 53 52 51 51 52 51 49 48 47 48 48 50 45 45 44 43 41 39 39 41 42 40 42 40 40 43 41 40 40 41 43
65 66 66 67 67 67 66 65 64 63 63 63 63 63 63 62 61 60 59 58 56 54 54 54 55 54 52 51 52 49 46 44 44 45 45 46 49 53 55 55 55 53 53 52 53 53 52 52 53 54 56 54 53 50 50 49 47 46 48 48 49 50 50 48 49 47 47 44 44 44 45 43 43 42 42 39 38 38 40 40 37 36 38 41 42
65 62 63 64 65 66 65 64 64 64 64 64 63 63 62 62 61 60 58 57 56 56 56 56 56 55 53 52 50 50 51 52 53 53 52 51 51 52 53 55 54 53 54 54 55 54 53 54 54 53 52 51 50 49 49 47 47 48 47 45 46 47 46 44 42 44 46 46 45 44 44 44 41 43 41 38 38 38 37 37 37 38 38 39 39
63 64 63 62 64 63 64 64 64 63 63 63 63 63 62 61 60 59 58 57 57 57 56 56 56 55 53 52 50 50 53 53 53 52 52 51 51 52 52 53 53 53 53 52 54 54 54 52 52 54 52 52 51 51 48 47 47 46 46 45 43 44 45 45 45 44 43 45 44 44 42 41 43 40 38 39 38 38 38 37 38 40 40 39 40
63 64 65 62 62 63 64 63 63 63 63 63 63 62 61 61 60 59 58 57 57 57 57 57 56 54 53 50 47 48 53 52 52 51 51 51 52 52 52 52 52 52 52 54 52 52 52 51 47 49 50 49 49 47 48 48 47 46 46 46 45 45 43 43 43 43 43 44 42 41 42 42 41 37 37 39 42 41 40 41 42 39 38 40 41
63 63 63 62 62 64 63 63 63 63 63 63 62 61 62 61 60 59 58 58 57 57 57 57 55 54 50 46 45 44 51 52 53 52 52 52 52 52 53 52 52 53 53 53 48 48 48 48 49 48 47 47 47 50 49 47 45 44 44 43 42 41 41 41 43 44 43 41 41 41 40 41 42 42 41 44 40 39 41 40 38 38 40 41 41
63 63 63 63 62 62 62 62 62 61 62 61 61 63 63 61 60 59 59 58 57 57 57 56 54 53 51 47 47 45 49 53 55 53 52 52 52 53 52 52 54 53 50 48 48 48 49 49 50 49 48 48 48 47 45 44 43 42 42 42 42 41 41 42 41 42 41 41 41 42 41 42 43 41 41 42 41 42 40 39 40 41 41 40 41
62 63 63 63 62 62 62 61 61 60 61 62 62 62 62 61 61 60 59 58 58 58 57 56 54 53 51 48 47 46 49 53 53 52 52 53 52 52 52 52 53 53 52 50 51 49 45 46 47 48 48 48 48 48 45 44 43 41 41 39 40 40 38 39 40 39 40 39 40 41 41 42 43 41 42 43 41 40 40 41 42 41 40 40 41
63 62 62 62 63 62 62 62 61 61 62 61 61 61 61 61 61 60 59 58 58 58 57 56 54 52 51 49 48 48 51 54 54 54 53 52 52 52 52 53 53 51 51 50 49 48 48 47 48 49 50 48 46 46 45 44 44 41 40 39 39 40 37 37 39 40 39 40 39 39 40 41 40 40 40 40 42 41 42 42 41 43 42 42 40
63 62 62 61 62 61 61 61 62 61 61 61 61 61 61 60 60 60 58 58 58 57 57 55 53 52 51 50 49 50 52 54 54 54 54 54 53 52 52 52 51 51 49 48 49 47 45 45 46 47 48 46 46 45 44 44 42 41 41 40 40 39 39 40 40 40 38 38 37 37 38 38 38 39 42 41 41 43 42 42 42 43 43 41 39
60 59 60 61 60 60 60 60 60 61 60 59 59 59 58 58 58 58 58 57 57 57 56 54 53 52 51 50 50 51 52 53 54 54 55 55 54 52 52 51 50 49 51 50 47 45 47 46 46 47 49 49 47 45 45 43 40 39 42 40 39 39 39 39 39 38 37 37 38 34 35 37 38 38 39 41 42 42 43 42 42 43 41 39 38
59 60 60 60 59 59 60 60 60 60 58 57 57 57 57 57 57 57 57 57 57 57 56 55 54 53 52 52 51 51 52 53 54 55 55 55 54 52 52 51 50 49 49 47 47 46 46 45 46 47 48 47 45 44 44 43 41 41 42 40 39 39 40 39 37 36 35 35 35 35 35 35 36 37 40 41 42 42 42 42 44 40 39 39 39
58 59 59 59 60 60 60 61 59 56 56 56 56 56 55 55 55 56 56 57 58 58 59 56 56 55 55 54 53 53 53 54 54 54 54 54 54 52 51 51 51 50 48 48 46 46 46 47 47 46 46 46 46 45 43 41 41 40 39 37 39 39 36 37 35 33 32 37 38 37 37 36 37 39 40 41 41 42 43 44 40 40 39 39 39
59 59 59 60 60 60 60 58 57 57 56 56 57 57 56 57 57 57 57 58 58 58 58 58 57 56 56 55 55 55 54 54 54 53 53 53 53 54 52 52 51 51 48 49 47 47 47 48 47 47 47 46 46 45 43 42 41 39 37 35 36 33 33 32 31 33 36 34 33 32 33 34 35 35 37 38 40 42 43 42 42 41 40 39 40
60 60 59 59 60 61 58 59 58 58 57 58 58 57 57 57 57 57 57 57 57 57 58 58 58 57 56 56 55 55 54 54 54 54 53 53 53 53 53 52 50 50 50 50 49 47 47 47 46 46 46 46 45 44 43 43 41 38 36 35 34 34 33 32 32 31 34 32 32 35 35 37 37 36 37 37 39 41 44 44 43 41 40 40 41